| time (UTC) | temp F | wind direction | speed MPH | gust MPH | rain 1hr in | rain 24hr in | rain mn in | humidity % | barometer mb |
| 20260506042603 | 55 | 296 | 1.0 | 2.0 | 0.00 | 0.00 | 0.00 | 55 | 1014.7 |
| 20260506042103 | 56 | 296 | 0.0 | 1.0 | 0.00 | 0.00 | 0.00 | 56 | 1014.6 |
| 20260506041603 | 57 | 296 | 1.0 | 2.0 | 0.00 | 0.00 | 0.00 | 51 | 1014.4 |
| 20260506040603 | 58 | 297 | 2.0 | 3.0 | 0.00 | 0.00 | 0.00 | 48 | 1014.4 |
| 20260506040104 | 58 | 297 | 1.0 | 3.0 | 0.00 | 0.00 | 0.00 | 48 | 1014.4 |
| 20260506035603 | 58 | 297 | 3.0 | 5.0 | 0.00 | 0.00 | 0.00 | 47 | 1014.4 |
| 20260506035104 | 59 | 299 | 3.0 | 5.0 | 0.00 | 0.00 | 0.00 | 47 | 1014.3 |
| 20260506034603 | 59 | 289 | 3.0 | 5.0 | 0.00 | 0.00 | 0.00 | 47 | 1014.2 |
| 20260506034104 | 59 | 284 | 3.0 | 6.0 | 0.00 | 0.00 | 0.00 | 48 | 1014.2 |
| 20260506033603 | 58 | 291 | 3.0 | 5.0 | 0.00 | 0.00 | 0.00 | 49 | 1014.2 |
| 20260506032603 | 59 | 293 | 3.0 | 6.0 | 0.00 | 0.00 | 0.00 | 50 | 1014.0 |
| 20260506032103 | 59 | 293 | 1.0 | 6.0 | 0.00 | 0.00 | 0.00 | 50 | 1014.0 |
| 20260506031603 | 59 | 286 | 3.0 | 5.0 | 0.00 | 0.00 | 0.00 | 50 | 1013.9 |
| 20260506031103 | 59 | 290 | 1.0 | 3.0 | 0.00 | 0.00 | 0.00 | 51 | 1013.7 |
| 20260506030603 | 60 | 290 | 3.0 | 5.0 | 0.00 | 0.00 | 0.00 | 50 | 1014.0 |
| 20260506030103 | 60 | 293 | 2.0 | 3.0 | 0.00 | 0.00 | 0.00 | 50 | 1013.9 |
| 20260506025602 | 61 | 294 | 1.0 | 3.0 | 0.00 | 0.00 | 0.00 | 49 | 1013.6 |
| 20260506025103 | 61 | 335 | 1.0 | 3.0 | 0.00 | 0.00 | 0.00 | 48 | 1013.7 |
| 20260506024603 | 62 | 336 | 1.0 | 3.0 | 0.00 | 0.00 | 0.00 | 47 | 1013.7 |
| 20260506024103 | 62 | 328 | 2.0 | 3.0 | 0.00 | 0.00 | 0.00 | 47 | 1013.6 |
| 20260506023603 | 63 | 324 | 2.0 | 5.0 | 0.00 | 0.00 | 0.00 | 47 | 1013.4 |
| 20260506023103 | 63 | 307 | 2.0 | 3.0 | 0.00 | 0.00 | 0.00 | 47 | 1013.3 |
| 20260506022103 | 64 | 314 | 2.0 | 7.0 | 0.00 | 0.00 | 0.00 | 46 | 1013.3 |
| 20260506021103 | 65 | 336 | 3.0 | 6.0 | 0.00 | 0.00 | 0.00 | 44 | 1013.1 |
| 20260506020603 | 65 | 315 | 3.0 | 10.0 | 0.00 | 0.00 | 0.00 | 45 | 1013.2 |
| 20260506020104 | 65 | 311 | 3.0 | 7.0 | 0.00 | 0.00 | 0.00 | 45 | 1013.2 |
| 20260506015603 | 65 | 326 | 2.0 | 3.0 | 0.00 | 0.00 | 0.00 | 46 | 1013.2 |
| 20260506015103 | 65 | 305 | 2.0 | 6.0 | 0.00 | 0.00 | 0.00 | 45 | 1013.1 |
| 20260506014603 | 65 | 341 | 2.0 | 7.0 | 0.00 | 0.00 | 0.00 | 44 | 1013.1 |
| 20260506014103 | 65 | 336 | 3.0 | 7.0 | 0.00 | 0.00 | 0.00 | 45 | 1013.1 |
| 20260506013603 | 66 | 316 | 3.0 | 6.0 | 0.00 | 0.00 | 0.00 | 45 | 1013.1 |
| 20260506012603 | 67 | 292 | 3.0 | 12.0 | 0.00 | 0.00 | 0.00 | 45 | 1012.8 |
| 20260506011603 | 67 | 303 | 3.0 | 9.0 | 0.00 | 0.00 | 0.00 | 44 | 1012.8 |
| 20260506011104 | 67 | 316 | 3.0 | 12.0 | 0.00 | 0.00 | 0.00 | 42 | 1012.9 |
| 20260506010103 | 68 | 316 | 6.0 | 12.0 | 0.00 | 0.00 | 0.00 | 42 | 1013.1 |
| 20260506005605 | 68 | 319 | 5.0 | 12.0 | 0.00 | 0.00 | 0.00 | 42 | 1013.0 |
| 20260506005103 | 68 | 321 | 5.0 | 12.0 | 0.00 | 0.00 | 0.00 | 42 | 1012.9 |
| 20260506004603 | 68 | 321 | 4.0 | 12.0 | 0.00 | 0.00 | 0.00 | 42 | 1012.9 |
| 20260506003603 | 69 | 350 | 3.0 | 9.0 | 0.00 | 0.00 | 0.00 | 44 | 1012.8 |
| 20260506003104 | 69 | 340 | 5.0 | 14.0 | 0.00 | 0.00 | 0.00 | 43 | 1012.8 |
| 20260506002603 | 69 | 315 | 5.0 | 12.0 | 0.00 | 0.00 | 0.00 | 42 | 1012.8 |
| 20260506001603 | 69 | 343 | 3.0 | 13.0 | 0.00 | 0.00 | 0.00 | 42 | 1012.7 |
| 20260506001103 | 69 | 326 | 5.0 | 12.0 | 0.00 | 0.00 | 0.00 | 41 | 1012.8 |
| 20260506000603 | 69 | 309 | 6.0 | 12.0 | 0.00 | 0.00 | 0.00 | 42 | 1012.9 |
| 20260505235103 | 70 | 318 | 6.0 | 14.0 | 0.00 | 0.00 | 0.00 | 43 | 1012.8 |
| 20260505234603 | 69 | 311 | 5.0 | 9.0 | 0.00 | 0.00 | 0.00 | 44 | 1013.0 |
| 20260505234103 | 69 | 312 | 9.0 | 14.0 | 0.00 | 0.00 | 0.00 | 44 | 1013.0 |
| 20260505233603 | 69 | 319 | 7.0 | 12.0 | 0.00 | 0.00 | 0.00 | 46 | 1012.9 |
| 20260505233103 | 69 | 306 | 5.0 | 12.0 | 0.00 | 0.00 | 0.00 | 45 | 1013.0 |
| 20260505232604 | 69 | 342 | 6.0 | 13.0 | 0.00 | 0.00 | 0.00 | 49 | 1013.0 |
| 20260505232103 | 68 | 291 | 7.0 | 12.0 | 0.00 | 0.00 | 0.00 | 49 | 1013.0 |
| 20260505231603 | 68 | 285 | 6.0 | 15.0 | 0.00 | 0.00 | 0.00 | 48 | 1013.2 |
| 20260505231103 | 67 | 294 | 9.0 | 20.0 | 0.00 | 0.00 | 0.00 | 52 | 1013.0 |
| 20260505230603 | 69 | 284 | 12.0 | 17.0 | 0.00 | 0.00 | 0.00 | 50 | 1012.7 |
| 20260505225603 | 68 | 291 | 3.0 | 10.0 | 0.00 | 0.00 | 0.00 | 48 | 1013.0 |
| 20260505225103 | 68 | 297 | 10.0 | 16.0 | 0.00 | 0.00 | 0.00 | 49 | 1013.0 |
| 20260505224603 | 69 | 288 | 5.0 | 10.0 | 0.00 | 0.00 | 0.00 | 48 | 1012.8 |
| 20260505224103 | 69 | 327 | 5.0 | 10.0 | 0.00 | 0.00 | 0.00 | 48 | 1012.9 |
| 20260505223603 | 69 | 319 | 5.0 | 12.0 | 0.00 | 0.00 | 0.00 | 47 | 1013.0 |
| 20260505222103 | 68 | 324 | 5.0 | 14.0 | 0.00 | 0.00 | 0.00 | 49 | 1013.3 |
| 20260505221603 | 69 | 349 | 3.0 | 12.0 | 0.00 | 0.00 | 0.00 | 46 | 1013.0 |
| 20260505221103 | 69 | 314 | 4.0 | 9.0 | 0.00 | 0.00 | 0.00 | 46 | 1013.2 |
| 20260505220602 | 70 | 311 | 5.0 | 12.0 | 0.00 | 0.00 | 0.00 | 47 | 1012.7 |
| 20260505220103 | 70 | 359 | 3.0 | 10.0 | 0.00 | 0.00 | 0.00 | 46 | 1012.8 |
| 20260505215603 | 70 | 316 | 4.0 | 12.0 | 0.00 | 0.00 | 0.00 | 44 | 1013.0 |
| 20260505215103 | 70 | 342 | 3.0 | 10.0 | 0.00 | 0.00 | 0.00 | 48 | 1012.9 |
| 20260505214603 | 70 | 346 | 4.0 | 9.0 | 0.00 | 0.00 | 0.00 | 44 | 1013.1 |
| 20260505214103 | 69 | 340 | 5.0 | 10.0 | 0.00 | 0.00 | 0.00 | 45 | 1013.3 |
| 20260505213103 | 70 | 286 | 2.0 | 12.0 | 0.00 | 0.00 | 0.00 | 46 | 1013.1 |
| 20260505212603 | 70 | 330 | 3.0 | 9.0 | 0.00 | 0.00 | 0.00 | 48 | 1013.2 |
| 20260505212103 | 70 | 344 | 5.0 | 10.0 | 0.00 | 0.00 | 0.00 | 46 | 1013.2 |
| 20260505211603 | 70 | 303 | 3.0 | 10.0 | 0.00 | 0.00 | 0.00 | 46 | 1013.2 |
| 20260505211103 | 70 | 296 | 4.0 | 8.0 | 0.00 | 0.00 | 0.00 | 46 | 1013.2 |
| 20260505210103 | 70 | 336 | 5.0 | 12.0 | 0.00 | 0.00 | 0.00 | 47 | 1013.0 |
| 20260505205603 | 69 | 298 | 4.0 | 10.0 | 0.00 | 0.00 | 0.00 | 49 | 1013.0 |
| 20260505205103 | 70 | 301 | 4.0 | 9.0 | 0.00 | 0.00 | 0.00 | 46 | 1013.1 |
| 20260505204603 | 69 | 329 | 3.0 | 12.0 | 0.00 | 0.00 | 0.00 | 47 | 1013.0 |
| 20260505203603 | 69 | 304 | 6.0 | 12.0 | 0.00 | 0.00 | 0.00 | 45 | 1013.2 |
| 20260505203103 | 70 | 327 | 5.0 | 9.0 | 0.00 | 0.00 | 0.00 | 45 | 1013.1 |
| 20260505202603 | 69 | 319 | 4.0 | 10.0 | 0.00 | 0.00 | 0.00 | 48 | 1013.0 |
| 20260505202103 | 69 | 319 | 3.0 | 10.0 | 0.00 | 0.00 | 0.00 | 44 | 1013.1 |
| 20260505201603 | 69 | 322 | 3.0 | 9.0 | 0.00 | 0.00 | 0.00 | 46 | 1013.0 |
| 20260505201103 | 69 | 8 | 3.0 | 8.0 | 0.00 | 0.00 | 0.00 | 44 | 1013.3 |
| 20260505200604 | 69 | 343 | 2.0 | 7.0 | 0.00 | 0.00 | 0.00 | 47 | 1013.4 |
| 20260505195603 | 68 | 319 | 6.0 | 12.0 | 0.00 | 0.00 | 0.00 | 44 | 1013.5 |
| 20260505195103 | 68 | 304 | 4.0 | 7.0 | 0.00 | 0.00 | 0.00 | 45 | 1013.4 |
| 20260505194603 | 67 | 348 | 2.0 | 7.0 | 0.00 | 0.00 | 0.00 | 49 | 1013.6 |
| 20260505193102 | 66 | 77 | 4.0 | 6.0 | 0.00 | 0.00 | 0.00 | 47 | 1013.7 |
| 20260505192602 | 67 | 48 | 2.0 | 9.0 | 0.00 | 0.00 | 0.00 | 47 | 1013.7 |
| 20260505192103 | 66 | 29 | 1.0 | 5.0 | 0.00 | 0.00 | 0.00 | 50 | 1013.7 |
| 20260505191603 | 65 | 57 | 1.0 | 3.0 | 0.00 | 0.00 | 0.00 | 52 | 1013.9 |
| 20260505190103 | 64 | 66 | 5.0 | 7.0 | 0.00 | 0.00 | 0.00 | 52 | 1013.7 |
| 20260505185603 | 63 | 85 | 3.0 | 7.0 | 0.00 | 0.00 | 0.00 | 52 | 1013.7 |
| 20260505185103 | 63 | 125 | 3.0 | 5.0 | 0.00 | 0.00 | 0.00 | 49 | 1013.8 |
| 20260505184603 | 64 | 91 | 3.0 | 6.0 | 0.00 | 0.00 | 0.00 | 50 | 1013.8 |
| 20260505184103 | 64 | 59 | 4.0 | 9.0 | 0.00 | 0.00 | 0.00 | 52 | 1013.7 |
| 20260505183104 | 63 | 29 | 3.0 | 7.0 | 0.00 | 0.00 | 0.00 | 52 | 1013.8 |
| 20260505182603 | 62 | 21 | 6.0 | 10.0 | 0.00 | 0.00 | 0.00 | 52 | 1014.0 |
| 20260505182104 | 62 | 97 | 5.0 | 7.0 | 0.00 | 0.00 | 0.00 | 54 | 1014.0 |
| 20260505181603 | 62 | 88 | 7.0 | 10.0 | 0.00 | 0.00 | 0.00 | 54 | 1014.0 |
| 20260505181103 | 62 | 71 | 2.0 | 7.0 | 0.00 | 0.00 | 0.00 | 54 | 1014.0 |
| 20260505180602 | 61 | 81 | 4.0 | 8.0 | 0.00 | 0.00 | 0.00 | 56 | 1014.2 |
| 20260505180103 | 61 | 72 | 6.0 | 12.0 | 0.00 | 0.00 | 0.00 | 55 | 1014.2 |
| 20260505175603 | 61 | 90 | 5.0 | 12.0 | 0.00 | 0.00 | 0.00 | 53 | 1014.4 |
| 20260505175102 | 61 | 99 | 5.0 | 12.0 | 0.00 | 0.00 | 0.00 | 53 | 1014.4 |
| 20260505174603 | 60 | 64 | 6.0 | 12.0 | 0.00 | 0.00 | 0.00 | 54 | 1014.4 |
| 20260505174103 | 60 | 81 | 6.0 | 12.0 | 0.00 | 0.00 | 0.00 | 54 | 1014.4 |
| 20260505173102 | 60 | 97 | 5.0 | 8.0 | 0.00 | 0.00 | 0.00 | 57 | 1014.2 |
| 20260505172603 | 60 | 111 | 6.0 | 12.0 | 0.00 | 0.00 | 0.00 | 57 | 1014.3 |
| 20260505171603 | 59 | 102 | 6.0 | 10.0 | 0.00 | 0.00 | 0.00 | 58 | 1014.4 |
| 20260505171103 | 59 | 112 | 6.0 | 9.0 | 0.00 | 0.00 | 0.00 | 58 | 1014.3 |
| 20260505170603 | 59 | 70 | 5.0 | 9.0 | 0.00 | 0.00 | 0.00 | 57 | 1014.0 |
| 20260505170103 | 58 | 119 | 6.0 | 10.0 | 0.00 | 0.00 | 0.00 | 57 | 1014.0 |
| 20260505165103 | 58 | 87 | 7.0 | 12.0 | 0.00 | 0.00 | 0.00 | 56 | 1014.0 |
| 20260505164603 | 58 | 94 | 7.0 | 12.0 | 0.00 | 0.00 | 0.00 | 55 | 1014.0 |
| 20260505164103 | 58 | 81 | 5.0 | 9.0 | 0.00 | 0.00 | 0.00 | 57 | 1014.0 |
| 20260505163103 | 57 | 112 | 5.0 | 10.0 | 0.00 | 0.00 | 0.00 | 57 | 1014.2 |
| 20260505162603 | 57 | 86 | 3.0 | 10.0 | 0.00 | 0.00 | 0.00 | 59 | 1014.1 |
| 20260505161603 | 57 | 127 | 5.0 | 6.0 | 0.00 | 0.00 | 0.00 | 61 | 1014.1 |
| 20260505161103 | 56 | 105 | 6.0 | 7.0 | 0.00 | 0.00 | 0.00 | 59 | 1014.0 |
| 20260505160103 | 56 | 90 | 6.0 | 12.0 | 0.00 | 0.00 | 0.00 | 60 | 1013.8 |
| 20260505153103 | 54 | 103 | 7.0 | 12.0 | 0.00 | 0.00 | 0.00 | 60 | 1014.2 |
| 20260505152603 | 54 | 102 | 9.0 | 12.0 | 0.00 | 0.00 | 0.00 | 61 | 1014.2 |
| 20260505152103 | 54 | 109 | 9.0 | 12.0 | 0.00 | 0.00 | 0.00 | 60 | 1014.2 |
| 20260505151603 | 53 | 100 | 9.0 | 12.0 | 0.00 | 0.00 | 0.00 | 61 | 1014.2 |
| 20260505140603 | 51 | 100 | 9.0 | 12.0 | 0.00 | 0.00 | 0.00 | 68 | 1012.9 |
| 20260505130103 | 47 | 130 | 6.0 | 7.0 | 0.00 | 0.00 | 0.00 | 72 | 1012.9 |
| 20260505124603 | 46 | 155 | 4.0 | 5.0 | 0.00 | 0.00 | 0.00 | 74 | 1012.9 |
| 20260505123603 | 44 | 165 | 5.0 | 6.0 | 0.00 | 0.00 | 0.00 | 77 | 1013.0 |
| 20260505122603 | 44 | 155 | 3.0 | 5.0 | 0.00 | 0.00 | 0.00 | 76 | 1012.9 |
| 20260505122104 | 45 | 136 | 3.0 | 5.0 | 0.00 | 0.00 | 0.00 | 75 | 1012.9 |
| 20260505121603 | 45 | 121 | 4.0 | 5.0 | 0.00 | 0.00 | 0.00 | 74 | 1012.8 |
| 20260505120603 | 46 | 102 | 3.0 | 5.0 | 0.00 | 0.00 | 0.00 | 73 | 1012.4 |
| 20260505115603 | 48 | 96 | 9.0 | 10.0 | 0.00 | 0.00 | 0.00 | 70 | 1012.3 |
| 20260505115104 | 48 | 93 | 9.0 | 12.0 | 0.00 | 0.00 | 0.00 | 70 | 1012.3 |
| 20260505114603 | 48 | 93 | 9.0 | 12.0 | 0.00 | 0.00 | 0.00 | 69 | 1012.3 |
| 20260505114103 | 48 | 90 | 10.0 | 12.0 | 0.00 | 0.00 | 0.00 | 69 | 1012.2 |
| 20260505113603 | 48 | 89 | 9.0 | 12.0 | 0.00 | 0.00 | 0.00 | 69 | 1012.1 |
| 20260505113104 | 49 | 87 | 9.0 | 12.0 | 0.00 | 0.00 | 0.00 | 67 | 1012.0 |
| 20260505112102 | 49 | 88 | 8.0 | 9.0 | 0.00 | 0.00 | 0.00 | 68 | 1012.0 |
| 20260505111103 | 49 | 86 | 8.0 | 10.0 | 0.00 | 0.00 | 0.00 | 68 | 1011.8 |
| 20260505102103 | 51 | 119 | 5.0 | 5.0 | 0.00 | 0.00 | 0.00 | 71 | 1011.2 |
| 20260505101603 | 51 | 119 | 3.0 | 5.0 | 0.00 | 0.00 | 0.00 | 71 | 1011.1 |
| 20260505101103 | 50 | 122 | 3.0 | 3.0 | 0.00 | 0.00 | 0.00 | 71 | 1011.1 |
| 20260505100603 | 50 | 124 | 3.0 | 3.0 | 0.00 | 0.00 | 0.00 | 69 | 1011.4 |
| 20260505095602 | 52 | 88 | 9.0 | 10.0 | 0.00 | 0.00 | 0.00 | 66 | 1011.0 |
| 20260505095103 | 52 | 83 | 7.0 | 12.0 | 0.00 | 0.00 | 0.00 | 67 | 1010.9 |
| 20260505094603 | 52 | 78 | 9.0 | 12.0 | 0.00 | 0.00 | 0.00 | 66 | 1010.9 |
| 20260505094103 | 52 | 79 | 11.0 | 12.0 | 0.00 | 0.00 | 0.00 | 67 | 1010.9 |
| 20260505093603 | 52 | 80 | 10.0 | 12.0 | 0.00 | 0.00 | 0.00 | 68 | 1010.9 |
| 20260505093103 | 51 | 83 | 10.0 | 12.0 | 0.00 | 0.00 | 0.00 | 69 | 1011.2 |
| 20260505092603 | 51 | 88 | 9.0 | 12.0 | 0.00 | 0.00 | 0.00 | 70 | 1011.1 |
| 20260505092103 | 51 | 84 | 9.0 | 12.0 | 0.00 | 0.00 | 0.00 | 70 | 1011.1 |
| 20260505091602 | 52 | 87 | 7.0 | 10.0 | 0.00 | 0.00 | 0.00 | 70 | 1010.9 |
| 20260505091103 | 53 | 84 | 9.0 | 10.0 | 0.00 | 0.00 | 0.00 | 68 | 1010.9 |
| 20260505090603 | 53 | 84 | 9.0 | 10.0 | 0.00 | 0.00 | 0.00 | 67 | 1010.8 |
| 20260505085603 | 52 | 92 | 6.0 | 6.0 | 0.00 | 0.00 | 0.00 | 70 | 1010.9 |
| 20260505085103 | 52 | 92 | 5.0 | 7.0 | 0.00 | 0.00 | 0.00 | 71 | 1010.9 |
| 20260505084603 | 51 | 92 | 6.0 | 7.0 | 0.00 | 0.00 | 0.00 | 73 | 1011.1 |
| 20260505084104 | 51 | 92 | 3.0 | 5.0 | 0.00 | 0.00 | 0.00 | 71 | 1011.1 |
| 20260505083603 | 53 | 90 | 7.0 | 10.0 | 0.00 | 0.00 | 0.00 | 69 | 1011.0 |
| 20260505083103 | 53 | 90 | 9.0 | 10.0 | 0.00 | 0.00 | 0.00 | 70 | 1011.0 |
| 20260505082603 | 51 | 93 | 7.0 | 9.0 | 0.00 | 0.00 | 0.00 | 72 | 1011.1 |
| 20260505082103 | 51 | 101 | 6.0 | 7.0 | 0.00 | 0.00 | 0.00 | 73 | 1011.2 |
| 20260505081603 | 51 | 101 | 6.0 | 7.0 | 0.00 | 0.00 | 0.00 | 73 | 1010.9 |
| 20260505080603 | 51 | 105 | 5.0 | 5.0 | 0.00 | 0.00 | 0.00 | 75 | 1011.1 |
| 20260505080103 | 52 | 105 | 3.0 | 5.0 | 0.00 | 0.00 | 0.00 | 74 | 1010.8 |
| 20260505075603 | 52 | 105 | 5.0 | 5.0 | 0.00 | 0.00 | 0.00 | 73 | 1010.8 |
| 20260505075103 | 53 | 105 | 5.0 | 6.0 | 0.00 | 0.00 | 0.00 | 72 | 1010.8 |
| 20260505074103 | 53 | 96 | 7.0 | 8.0 | 0.00 | 0.00 | 0.00 | 70 | 1010.8 |
| 20260505073603 | 53 | 96 | 7.0 | 8.0 | 0.00 | 0.00 | 0.00 | 70 | 1010.8 |
| 20260505073103 | 53 | 96 | 8.0 | 9.0 | 0.00 | 0.00 | 0.00 | 70 | 1010.9 |
| 20260505072603 | 54 | 96 | 7.0 | 9.0 | 0.00 | 0.00 | 0.00 | 69 | 1010.6 |
| 20260505071603 | 55 | 92 | 9.0 | 10.0 | 0.00 | 0.00 | 0.00 | 68 | 1010.6 |
| 20260505071104 | 55 | 92 | 8.0 | 10.0 | 0.00 | 0.00 | 0.00 | 66 | 1010.8 |
| 20260505070603 | 56 | 92 | 7.0 | 9.0 | 0.00 | 0.00 | 0.00 | 66 | 1010.8 |
| 20260505065603 | 55 | 101 | 7.0 | 9.0 | 0.00 | 0.00 | 0.00 | 68 | 1010.9 |
| 20260505065104 | 55 | 100 | 7.0 | 10.0 | 0.00 | 0.00 | 0.00 | 68 | 1010.7 |
| 20260505064603 | 55 | 100 | 6.0 | 8.0 | 0.00 | 0.00 | 0.00 | 70 | 1010.8 |
| 20260505064103 | 55 | 101 | 5.0 | 6.0 | 0.00 | 0.00 | 0.00 | 70 | 1010.7 |
| 20260505062603 | 55 | 104 | 6.0 | 7.0 | 0.00 | 0.00 | 0.00 | 70 | 1010.6 |
| 20260505061603 | 54 | 109 | 6.0 | 8.0 | 0.00 | 0.00 | 0.00 | 73 | 1010.6 |
| 20260505061103 | 54 | 106 | 7.0 | 9.0 | 0.00 | 0.00 | 0.00 | 72 | 1010.6 |
| 20260505060603 | 55 | 98 | 6.0 | 10.0 | 0.00 | 0.00 | 0.00 | 71 | 1010.6 |
| 20260505060103 | 56 | 96 | 9.0 | 10.0 | 0.00 | 0.00 | 0.00 | 69 | 1010.6 |
| 20260505055603 | 56 | 90 | 7.0 | 10.0 | 0.00 | 0.00 | 0.00 | 69 | 1010.5 |
| 20260505055103 | 56 | 88 | 8.0 | 10.0 | 0.00 | 0.00 | 0.00 | 70 | 1010.5 |
| 20260505054603 | 56 | 87 | 9.0 | 10.0 | 0.00 | 0.00 | 0.00 | 70 | 1010.6 |
| 20260505054102 | 56 | 89 | 9.0 | 12.0 | 0.00 | 0.00 | 0.00 | 70 | 1010.5 |
| 20260505053604 | 57 | 89 | 10.0 | 12.0 | 0.00 | 0.00 | 0.00 | 69 | 1010.2 |
| 20260505052603 | 57 | 82 | 10.0 | 12.0 | 0.00 | 0.00 | 0.00 | 67 | 1010.2 |
| 20260505052102 | 58 | 81 | 10.0 | 12.0 | 0.00 | 0.00 | 0.00 | 67 | 1010.2 |
| 20260505051603 | 58 | 81 | 10.0 | 12.0 | 0.00 | 0.00 | 0.00 | 67 | 1010.2 |
| 20260505051103 | 58 | 78 | 10.0 | 13.0 | 0.00 | 0.00 | 0.00 | 68 | 1010.0 |
| 20260505050603 | 58 | 81 | 9.0 | 12.0 | 0.00 | 0.00 | 0.00 | 69 | 1009.7 |